User: anonymous   Login
Location: Caltech
(34.1382°N, 118.1253°W)
Time: 06:59:53
(UTC-07:00)
Language:

Cosmos 1833 Rocket - Orbit

View from above orbital plane
View from above orbital plane
View from above satellite
View from above satellite

Ground track
Ground track

The orbit data is extracted from the following two-line orbital elements,

1 17590U 87027B   16240.90507293 -.00000168  00000-0 -59916-4 0  9995
2 17590  71.0030  47.5433 0004449   3.9715 356.1443 14.16731159522583
Epoch (UTC): 27 August 2016 21:43:18
Eccentricity: 0.0004449
inclination: 71.0030°
perigee height: 833 km
apogee height: 839 km
right ascension of ascending node: 47.5433°
argument of perigee: 3.9715°
revolutions per day: 14.16731159
mean anomaly at epoch: 356.1443°
orbit number at epoch: 52258

The dashed part of the orbit path shows where the satellite is in the earth's shadow,  

DLR